Content
SEND FEEDBACK

Daily
Averages
Monthly
Summary
United States of America

YAMHILL, OREGON


Home > North America > United States > Oregon
Elevation: 220 meters     Latitude: 45 19N     Longitude: 123 21W

WEATHER
 
SELECT A DAY
Number of Records: 205,747;   Date Range: 1/1/95 - 12/18/14
 
SHARE

PRINT THIS DATA

[ ← Previous Day ]
WEATHER ALMANAC - 31 JANUARY, 2013
[ Next Day → ]
[ °F ]   °C
Weather ElementAverageHighLow
Temperature6.9 °C10.6 °C (2:53 pm)4.4 °C (12:58 am)
Dewpoint5.9 °C7.8 °C (8:53 pm)3.3 °C (12:58 am)
Humidity93.8 %100 % (1:53 am)77 % (2:53 pm)
Barometer1029.8 hPa1031.5 hPa (1:22 am)1027.4 hPa (5:53 pm)
Wind Speed1.8 km/h9.3 km/h (8:53 am)
Weather ElementAverage
Visibility6.4 km
Wind DirectionENE (60.5 °)

Weather ElementTotal
Precipitation---
Heating Degree Days10.8 (Base 18.3)
Averaged from 38 records on 31 January, 2013
WEATHER CONDITIONS BREAKOUT
WIND DIRECTION BREAKOUT
WEATHER BY HOUR - 31 JANUARY, 2013
[ °F ]   °C
Local TimeTemperatureDewpointHumidityBarometerVisibilityWind DirectionWind SpeedGust SpeedPrecipitationEventsConditions
12:58 AM4.4 °C3.3 °C93 %1031.2 hPa2.9 kmCalmScattered Clouds
1:06 AM4.4 °C3.9 °C97 %1031.2 hPa4.8 kmCalmMostly Cloudy
1:22 AM4.4 °C3.9 °C97 %1031.5 hPa4 kmCalmOvercast
1:30 AM5 °C4.4 °C96 %1031.5 hPa9.7 kmCalmOvercast
1:53 AM5 °C5 °C100 %1031.5 hPa8 kmCalmMostly Cloudy
2:12 AM5.6 °C5 °C96 %1031.2 hPa2.9 kmCalmMostly Cloudy
2:21 AM4.4 °C4.4 °C100 %1031.5 hPa0.8 kmCalmFogFog
2:53 AM4.4 °C4.4 °C100 %1031.2 hPa0.8 kmCalmFogFog
3:04 AM4.4 °C4.4 °C100 %1031.2 hPa1.6 kmCalmOvercast
3:14 AM4.4 °C4.4 °C100 %1030.8 hPa4 kmCalmOvercast
3:19 AM4.4 °C4.4 °C100 %1030.8 hPa1.3 kmCalmOvercast
3:42 AM5.6 °C5.6 °C100 %1030.8 hPa0.3 kmCalmFogFog
3:53 AM5.6 °C5.6 °C100 %1031.2 hPa0.3 kmCalmFogFog
4:53 AM6.1 °C5.6 °C97 %1030.5 hPa0.3 kmSSE (150°)5.6 km/hFogFog
5:53 AM6.1 °C6.1 °C100 %1030.8 hPa0.3 kmCalmFogFog
6:53 AM6.1 °C5.6 °C97 %1030.5 hPa0.3 kmCalmFogFog
7:53 AM6.1 °C5.6 °C97 %1030.5 hPa0.3 kmCalmFogFog
8:53 AM6.1 °C5.6 °C97 %1030.8 hPa0.3 kmNW (320°)9.3 km/hFogFog
9:53 AM6.1 °C5.6 °C97 %1030.8 hPa0.8 kmWNW (290°)5.6 km/hFogFog
10:38 AM6.1 °C6.1 °C100 %1030.1 hPa1.9 kmESE (120°)7.4 km/hOvercast
10:53 AM6.7 °C6.1 °C96 %1030.5 hPa3.2 kmESE (110°)7.4 km/hOvercast
11:26 AM6.7 °C6.1 °C96 %1030.1 hPa3.2 kmCalmOvercast
11:53 AM7.8 °C6.1 °C89 %1029.8 hPa4.8 kmCalm0 mmRainLight Rain
12:53 PM8.9 °C6.7 °C86 %1029.5 hPa6.4 kmNNW (340°)7.4 km/h0 mmMostly Cloudy
1:03 PM9.4 °C6.7 °C83 %1029.5 hPa6.4 kmCalmHaze
1:53 PM10 °C6.7 °C80 %1028.8 hPa6.4 kmCalmHaze
2:53 PM10.6 °C6.7 °C77 %1028.4 hPa8 kmCalmHaze
3:53 PM10 °C7.2 °C83 %1028.4 hPa16.1 kmNNW (340°)7.4 km/hOvercast
4:53 PM10 °C7.2 °C83 %1027.8 hPa12.9 kmCalmOvercast
5:53 PM9.4 °C7.2 °C86 %1027.4 hPa9.7 kmCalmOvercast
6:53 PM8.9 °C7.2 °C89 %1027.4 hPa16.1 kmNW (320°)5.6 km/hOvercast
7:53 PM8.3 °C7.2 °C93 %1027.4 hPa16.1 kmNorth (10°)5.6 km/hOvercast
8:02 PM8.9 °C7.2 °C89 %1027.4 hPa16.1 kmCalmOvercast
8:53 PM8.3 °C7.8 °C97 %1027.8 hPa16.1 kmWNW (300°)5.6 km/hOvercast
10:12 PM8.3 °C7.2 °C93 %1027.8 hPa16.1 kmCalmOvercast
10:27 PM8.3 °C7.2 °C93 %1027.8 hPa16.1 kmCalmOvercast
10:53 PM8.3 °C7.2 °C93 %1027.8 hPa14.5 kmCalmOvercast
11:53 PM7.8 °C7.2 °C96 %1028.1 hPa11.3 kmCalmOvercast
Hourly data recorded from KHIO, located 0 kilometers away from Yamhill, Oregon







STORIES FROM OUR PARTNERS